Location: *
(60.1759°S, 155.0663°W)
Time: 17:42:27
(UTC+00:00)

Meteor 2-4 Rocket - Pass Details

Date: 17 September 2019
Orbit: 799 x 908 km, 81.2° (Epoch: 20 October)

Event Time Altitude Azimuth Distance (km) Brightness Sun altitude
Rises 15:33:49 0° 198° (SSW) 3,569 6.8 -7.0°
Reaches altitude 10° 15:36:22 10° 202° (SSW) 2,613 6.1 -6.7°
Maximum altitude 15:42:09 53° 276° (W) 1,090 4.0 -6.0°
Drops below altitude 10° 15:47:43 10° 351° (N) 2,524 6.1 -5.3°
Sets 15:50:09 0° 355° (N) 3,437 6.8 -5.0°
